CW9648 Weather Reports


Display with metric or nautical units.
time (UTC)temp
F
wind
direction
speed
MPH
gust
MPH
rain 1hr
in
rain 24hr
in
rain mn
in
humidity
%
barometer
mb
20260831222504 98 134 2.0 4.0 0.00 0.00 0.00 47 1014.7
20260831222004 98 119 2.0 6.0 0.00 0.00 0.00 45 1014.7
20260831221504 98 126 1.0 6.0 0.00 0.00 0.00 47 1014.7
20260831221004 98 104 1.0 5.0 0.00 0.00 0.00 49 1014.8
20260831220504 97 122 1.0 5.0 0.00 0.00 0.00 48 1014.9
20260831220004 97 158 1.0 3.0 0.00 0.00 0.00 50 1014.9
20260831215504 96 151 1.0 3.0 0.00 0.00 0.00 49 1014.9
20260831215004 97 137 1.0 4.0 0.00 0.00 0.00 49 1015.0
20260831214504 97 155 1.0 4.0 0.00 0.00 0.00 50 1015.0
20260831214004 98 101 1.0 6.0 0.00 0.00 0.00 49 1015.0
20260831213504 99 110 2.0 11.0 0.00 0.00 0.00 47 1015.1
20260831213004 99 140 2.0 11.0 0.00 0.00 0.00 46 1015.1
20260831212504 99 177 2.0 5.0 0.00 0.00 0.00 48 1015.1
20260831212004 97 191 2.0 5.0 0.00 0.00 0.00 50 1015.2
20260831211504 96 188 1.0 5.0 0.00 0.00 0.00 52 1015.2
20260831211025 97 171 1.0 4.0 0.00 0.00 0.00 50 1015.3
20260831210504 97 167 2.0 7.0 0.00 0.00 0.00 49 1015.4
20260831210004 98 153 3.0 7.0 0.00 0.00 0.00 49 1015.4
20260831205504 99 14 2.0 5.0 0.00 0.00 0.00 47 1015.4
20260831205004 99 10 2.0 4.0 0.00 0.00 0.00 47 1015.4
20260831204525 97 355 1.0 3.0 0.00 0.00 0.00 49 1015.5
20260831204004 96 13 1.0 3.0 0.00 0.00 0.00 51 1015.6
20260831203504 96 142 1.0 3.0 0.00 0.00 0.00 51 1015.6
20260831203004 96 143 1.0 3.0 0.00 0.00 0.00 52 1015.7
20260831202504 95 175 1.0 4.0 0.00 0.00 0.00 53 1015.8
20260831202004 96 188 2.0 6.0 0.00 0.00 0.00 52 1016.0
20260831201504 96 182 2.0 6.0 0.00 0.00 0.00 51 1015.9
20260831201004 97 158 2.0 6.0 0.00 0.00 0.00 51 1016.1
20260831200504 98 173 3.0 9.0 0.00 0.00 0.00 49 1016.0
20260831200004 99 171 3.0 9.0 0.00 0.00 0.00 49 1016.2
20260831195504 98 62 2.0 5.0 0.00 0.00 0.00 49 1016.2
20260831195004 98 78 1.0 4.0 0.00 0.00 0.00 49 1016.2
20260831194504 96 209 1.0 3.0 0.00 0.00 0.00 56 1016.2
20260831194004 96 6 1.0 4.0 0.00 0.00 0.00 51 1016.3
20260831193504 95 21 2.0 4.0 0.00 0.00 0.00 53 1016.6
20260831193004 96 15 2.0 4.0 0.00 0.00 0.00 52 1016.7
20260831192504 96 269 1.0 4.0 0.00 0.00 0.00 52 1016.7
20260831192004 95 122 1.0 4.0 0.00 0.00 0.00 54 1016.7
20260831191504 95 60 1.0 2.0 0.00 0.00 0.00 55 1016.9
20260831191004 95 353 1.0 3.0 0.00 0.00 0.00 53 1017.0
20260831190504 95 34 1.0 4.0 0.00 0.00 0.00 53 1017.0
20260831190004 96 65 1.0 4.0 0.00 0.00 0.00 52 1017.1
20260831185504 96 118 2.0 6.0 0.00 0.00 0.00 52 1017.1
20260831185025 97 156 3.0 7.0 0.00 0.00 0.00 52 1017.1
20260831184504 97 147 3.0 7.0 0.00 0.00 0.00 53 1017.1
20260831184004 96 135 3.0 9.0 0.00 0.00 0.00 54 1017.2
20260831183504 95 122 2.0 9.0 0.00 0.00 0.00 55 1017.3
20260831183025 94 74 1.0 7.0 0.00 0.00 0.00 55 1017.4
20260831182504 93 154 1.0 3.0 0.00 0.00 0.00 57 1017.5
20260831182004 93 182 1.0 3.0 0.00 0.00 0.00 57 1017.4
20260831181525 93 223 2.0 3.0 0.00 0.00 0.00 56 1017.5
20260831181004 94 340 2.0 7.0 0.00 0.00 0.00 55 1017.6
20260831180525 94 340 3.0 7.0 0.00 0.00 0.00 55 1017.6
20260831180004 95 360 3.0 6.0 0.00 0.00 0.00 55 1017.7
20260831175504 95 13 2.0 6.0 0.00 0.00 0.00 55 1017.8
20260831175004 95 332 2.0 5.0 0.00 0.00 0.00 57 1017.9
20260831174504 94 335 4.0 8.0 0.00 0.00 0.00 57 1017.9
20260831174025 94 332 3.0 8.0 0.00 0.00 0.00 59 1017.9
20260831173525 93 326 4.0 12.0 0.00 0.00 0.00 60 1018.1
20260831173004 94 327 4.0 12.0 0.00 0.00 0.00 58 1018.2
20260831172504 94 357 3.0 8.0 0.00 0.00 0.00 58 1018.2
20260831172004 95 35 3.0 7.0 0.00 0.00 0.00 58 1018.3
20260831171504 94 326 3.0 7.0 0.00 0.00 0.00 58 1018.3
20260831171004 94 222 3.0 8.0 0.00 0.00 0.00 59 1018.3
20260831170504 93 149 2.0 8.0 0.00 0.00 0.00 61 1018.4
20260831170004 92 53 2.0 4.0 0.00 0.00 0.00 60 1018.7
20260831165504 93 96 2.0 6.0 0.00 0.00 0.00 58 1018.7
20260831165004 95 102 2.0 6.0 0.00 0.00 0.00 57 1018.7
20260831164504 94 128 2.0 7.0 0.00 0.00 0.00 60 1018.7
20260831164004 93 120 3.0 7.0 0.00 0.00 0.00 60 1018.8
20260831163504 92 335 2.0 5.0 0.00 0.00 0.00 61 1018.9
20260831163004 92 181 2.0 7.0 0.00 0.00 0.00 60 1018.9
20260831162504 92 162 2.0 7.0 0.00 0.00 0.00 61 1019.0
20260831162004 92 158 1.0 4.0 0.00 0.00 0.00 62 1019.0
20260831161504 92 192 1.0 4.0 0.00 0.00 0.00 63 1019.0
20260831161025 91 175 2.0 6.0 0.00 0.00 0.00 64 1019.0
20260831160504 90 149 3.0 6.0 0.00 0.00 0.00 63 1019.0
20260831160004 90 130 3.0 5.0 0.00 0.00 0.00 64 1019.0
20260831155525 91 102 2.0 4.0 0.00 0.00 0.00 63 1019.0
20260831155004 90 58 1.0 3.0 0.00 0.00 0.00 66 1019.1
20260831154504 90 162 1.0 5.0 0.00 0.00 0.00 67 1019.1
20260831154004 90 163 1.0 5.0 0.00 0.00 0.00 67 1019.0
20260831153504 89 104 1.0 3.0 0.00 0.00 0.00 70 1019.0
20260831153004 89 134 2.0 4.0 0.00 0.00 0.00 70 1019.0
20260831152504 88 149 2.0 5.0 0.00 0.00 0.00 70 1019.1
20260831152004 88 125 1.0 5.0 0.00 0.00 0.00 71 1019.0
20260831151504 87 10 1.0 4.0 0.00 0.00 0.00 73 1019.0
20260831151004 86 43 2.0 4.0 0.00 0.00 0.00 74 1019.0
20260831150504 86 114 1.0 3.0 0.00 0.00 0.00 75 1019.1
20260831150004 86 77 1.0 3.0 0.00 0.00 0.00 75 1019.0
20260831145525 86 1 2.0 4.0 0.00 0.00 0.00 75 1018.9
20260831145004 85 337 2.0 7.0 0.00 0.00 0.00 73 1019.0
20260831144504 85 349 2.0 7.0 0.00 0.00 0.00 74 1018.9
20260831144003 84 354 1.0 3.0 0.00 0.00 0.00 74 1018.9
20260831143503 84 354 1.0 3.0 0.00 0.00 0.00 76 1019.0
20260831143004 84 30 1.0 3.0 0.00 0.00 0.00 76 1019.0
20260831142504 83 123 1.0 4.0 0.00 0.00 0.00 76 1018.9
20260831142025 83 141 1.0 4.0 0.00 0.00 0.00 76 1018.9
20260831141504 82 0 0.0 0.0 0.00 0.00 0.00 75 1018.8
20260831141004 82 0 0.0 0.0 0.00 0.00 0.00 75 1018.8
20260831140503 81 0 0.0 0.0 0.00 0.00 0.00 74 1018.8
20260831140003 80 0 0.0 0.0 0.00 0.00 0.00 72 1018.8
20260831135504 79 0 0.0 0.0 0.00 0.00 0.00 67 1018.7
20260831135004 78 0 0.0 0.0 0.00 0.00 0.00 60 1018.7
20260831134503 78 0 0.0 0.0 0.00 0.00 0.00 55 1018.7
20260831134004 77 0 0.0 0.0 0.00 0.00 0.00 52 1018.7
20260831133504 77 0 0.0 0.0 0.00 0.00 0.00 50 1018.7
20260831133003 76 0 0.0 0.0 0.00 0.00 0.00 51 1018.7
20260831132524 76 0 0.0 0.0 0.00 0.00 0.00 51 1018.7
20260831132003 75 0 0.0 0.0 0.00 0.00 0.00 51 1018.6
20260831131503 75 0 0.0 0.0 0.00 0.00 0.00 50 1018.5
20260831131004 75 0 0.0 0.0 0.00 0.00 0.00 49 1018.4
20260831130503 75 0 0.0 0.0 0.00 0.00 0.00 49 1018.5
20260831130004 74 0 0.0 0.0 0.00 0.00 0.00 49 1018.4
20260831125504 74 0 0.0 0.0 0.00 0.00 0.00 48 1018.3
20260831125003 74 0 0.0 0.0 0.00 0.00 0.00 48 1018.2
20260831124504 74 0 0.0 0.0 0.00 0.00 0.00 48 1018.1
20260831124004 74 0 0.0 0.0 0.00 0.00 0.00 48 1018.1
20260831123503 74 0 0.0 0.0 0.00 0.00 0.00 48 1018.0
20260831123003 74 0 0.0 0.0 0.00 0.00 0.00 48 1018.0
20260831122503 74 0 0.0 0.0 0.00 0.00 0.00 48 1017.9
20260831122004 74 0 0.0 0.0 0.00 0.00 0.00 48 1017.9
20260831121504 74 0 0.0 0.0 0.00 0.00 0.00 48 1017.9
20260831121003 74 0 0.0 0.0 0.00 0.00 0.00 49 1017.9
20260831120503 74 0 0.0 0.0 0.00 0.00 0.00 50 1017.8
20260831120003 74 0 0.0 0.0 0.00 0.00 0.00 50 1017.6
20260831115525 74 0 0.0 0.0 0.00 0.00 0.00 51 1017.6
20260831115004 74 0 0.0 0.0 0.00 0.00 0.00 51 1017.5
20260831114504 74 0 0.0 0.0 0.00 0.00 0.00 51 1017.4
20260831114004 74 0 0.0 0.0 0.00 0.00 0.00 51 1017.4
20260831113504 74 0 0.0 0.0 0.00 0.00 0.00 52 1017.3
20260831113004 74 0 0.0 0.0 0.00 0.00 0.00 52 1017.2
20260831112525 74 0 0.0 0.0 0.00 0.00 0.00 53 1017.1
20260831112003 74 0 0.0 0.0 0.00 0.00 0.00 53 1017.0
20260831111504 74 0 0.0 0.0 0.00 0.00 0.00 54 1017.0
20260831111003 74 0 0.0 0.0 0.00 0.00 0.00 54 1017.0
20260831110503 74 0 0.0 0.0 0.00 0.00 0.00 53 1017.0
20260831110003 74 0 0.0 0.0 0.00 0.00 0.00 54 1017.0
20260831105503 74 0 0.0 0.0 0.00 0.00 0.00 55 1017.1
20260831105003 74 0 0.0 0.0 0.00 0.00 0.00 56 1017.0
20260831104525 74 0 0.0 0.0 0.00 0.00 0.00 56 1017.1
20260831104003 74 0 0.0 0.0 0.00 0.00 0.00 57 1017.0
20260831103503 74 0 0.0 0.0 0.00 0.00 0.00 57 1016.9
20260831103004 74 0 0.0 0.0 0.00 0.00 0.00 57 1016.9
20260831102524 74 0 0.0 0.0 0.00 0.00 0.00 58 1017.0
20260831102003 75 0 0.0 0.0 0.00 0.00 0.00 60 1017.0
20260831101504 75 0 0.0 0.0 0.00 0.00 0.00 61 1016.9
20260831101003 75 0 0.0 0.0 0.00 0.00 0.00 62 1017.0
20260831100504 75 0 0.0 0.0 0.00 0.00 0.00 62 1016.8
20260831100004 75 0 0.0 0.0 0.00 0.00 0.00 62 1016.8
20260831095504 75 0 0.0 0.0 0.00 0.00 0.00 63 1016.9
20260831095024 76 0 0.0 0.0 0.00 0.00 0.00 64 1016.9
20260831094504 76 0 0.0 0.0 0.00 0.00 0.00 65 1016.9
20260831094024 76 0 0.0 0.0 0.00 0.00 0.00 65 1016.8
20260831093524 76 0 0.0 0.0 0.00 0.00 0.00 66 1016.7
20260831093024 76 0 0.0 0.0 0.00 0.00 0.00 67 1016.8
20260831092503 76 0 0.0 0.0 0.00 0.00 0.00 68 1016.6
20260831092004 76 0 0.0 0.0 0.00 0.00 0.00 68 1016.6
20260831091525 76 0 0.0 0.0 0.00 0.00 0.00 69 1016.6
20260831091024 76 0 0.0 0.0 0.00 0.00 0.00 69 1016.6
20260831090503 76 0 0.0 0.0 0.00 0.00 0.00 69 1016.6
20260831090004 76 0 0.0 0.0 0.00 0.00 0.00 70 1016.6
20260831085503 76 0 0.0 0.0 0.00 0.00 0.00 70 1016.6
20260831085004 77 222 0.0 1.0 0.00 0.00 0.00 71 1016.6
20260831084503 77 222 0.0 1.0 0.00 0.00 0.00 71 1016.6
20260831084003 77 222 0.0 1.0 0.00 0.00 0.00 71 1016.7
20260831083504 77 0 0.0 0.0 0.00 0.00 0.00 72 1016.8
20260831083003 77 222 0.0 1.0 0.00 0.00 0.00 72 1016.7
20260831082503 77 222 0.0 1.0 0.00 0.00 0.00 73 1016.9
20260831082003 78 0 0.0 0.0 0.00 0.00 0.00 74 1016.7
20260831081504 78 0 0.0 0.0 0.00 0.00 0.00 75 1016.8
20260831081003 78 0 0.0 0.0 0.00 0.00 0.00 75 1016.9
20260831080524 78 0 0.0 0.0 0.00 0.00 0.00 75 1016.8
20260831080004 78 0 0.0 0.0 0.00 0.00 0.00 75 1016.7
20260831075503 78 0 0.0 0.0 0.00 0.00 0.00 75 1016.9
20260831075003 78 0 0.0 0.0 0.00 0.00 0.00 75 1016.9
20260831074503 78 222 0.0 1.0 0.00 0.00 0.00 75 1016.8
20260831074024 78 222 0.0 1.0 0.00 0.00 0.00 75 1016.9
20260831073524 78 222 0.0 1.0 0.00 0.00 0.00 75 1017.0
20260831073004 78 222 0.0 1.0 0.00 0.00 0.00 76 1017.1
20260831072503 78 215 0.0 1.0 0.00 0.00 0.00 76 1017.2
20260831072004 78 253 0.0 2.0 0.00 0.00 0.00 76 1017.1
20260831071504 78 259 0.0 2.0 0.00 0.00 0.00 76 1017.1
20260831071003 78 246 0.0 1.0 0.00 0.00 0.00 76 1017.1
20260831070503 78 0 0.0 0.0 0.00 0.00 0.00 77 1017.1
20260831070003 78 0 0.0 0.0 0.00 0.00 0.00 77 1017.1
20260831065524 78 0 0.0 0.0 0.00 0.00 0.00 77 1016.9
20260831065003 78 0 0.0 0.0 0.00 0.00 0.00 77 1016.8
20260831064503 78 0 0.0 0.0 0.00 0.00 0.00 77 1016.8
20260831064003 79 0 0.0 0.0 0.00 0.00 0.00 77 1016.9
20260831063503 79 0 0.0 0.0 0.00 0.00 0.00 78 1016.8
20260831063003 79 0 0.0 0.0 0.00 0.00 0.00 78 1016.8
20260831062503 79 0 0.0 0.0 0.00 0.00 0.00 78 1017.0
20260831062003 79 0 0.0 0.0 0.00 0.00 0.00 78 1017.0
20260831061503 79 0 0.0 0.0 0.00 0.00 0.00 78 1016.9
20260831061003 79 0 0.0 0.0 0.00 0.00 0.00 78 1017.0
20260831060503 79 0 0.0 0.0 0.00 0.00 0.00 78 1017.0
20260831060003 79 0 0.0 0.0 0.00 0.00 0.00 78 1017.0
20260831055503 80 0 0.0 0.0 0.00 0.00 0.00 78 1016.9
20260831055004 80 0 0.0 0.0 0.00 0.00 0.00 78 1016.9
20260831054503 80 0 0.0 0.0 0.00 0.00 0.00 78 1017.0
20260831054003 80 0 0.0 0.0 0.00 0.00 0.00 78 1017.0
20260831053524 80 0 0.0 0.0 0.00 0.00 0.00 78 1016.9
20260831053003 80 246 0.0 1.0 0.00 0.00 0.00 78 1016.9
20260831052503 80 0 0.0 0.0 0.00 0.00 0.00 78 1016.9
20260831052004 81 0 0.0 0.0 0.00 0.00 0.00 78 1016.8
20260831051503 81 0 0.0 0.0 0.00 0.00 0.00 78 1016.7
20260831051003 81 0 0.0 0.0 0.00 0.00 0.00 78 1016.7
20260831050524 81 246 0.0 1.0 0.00 0.00 0.00 78 1016.7
20260831050003 81 246 0.0 1.0 0.00 0.00 0.00 77 1016.8
20260831045503 81 0 0.0 0.0 0.00 0.00 0.00 78 1016.8
20260831045003 81 0 0.0 0.0 0.00 0.00 0.00 78 1016.7
20260831044504 82 0 0.0 0.0 0.00 0.00 0.00 78 1016.8
20260831044003 82 0 0.0 0.0 0.00 0.00 0.00 78 1016.8
20260831043503 82 0 0.0 0.0 0.00 0.00 0.00 78 1016.7
20260831043003 82 0 0.0 0.0 0.00 0.00 0.00 77 1016.7
20260831042503 82 0 0.0 0.0 0.00 0.00 0.00 77 1016.6
20260831042024 82 0 0.0 0.0 0.00 0.00 0.00 77 1016.6
20260831041503 82 0 0.0 0.0 0.00 0.00 0.00 77 1016.7
20260831041003 82 0 0.0 0.0 0.00 0.00 0.00 76 1016.6
20260831040503 83 0 0.0 0.0 0.00 0.00 0.00 76 1016.5
20260831040003 83 0 0.0 0.0 0.00 0.00 0.00 76 1016.5
20260831035503 83 0 0.0 0.0 0.00 0.00 0.00 75 1016.5
20260831035003 83 0 0.0 0.0 0.00 0.00 0.00 75 1016.4
20260831034503 83 0 0.0 0.0 0.00 0.00 0.00 74 1016.4
20260831034003 83 0 0.0 0.0 0.00 0.00 0.00 74 1016.4
20260831033503 84 0 0.0 0.0 0.00 0.00 0.00 74 1016.2
20260831033003 84 0 0.0 0.0 0.00 0.00 0.00 72 1016.1
20260831032503 84 0 0.0 0.0 0.00 0.00 0.00 74 1016.1
20260831032003 84 0 0.0 0.0 0.00 0.00 0.00 72 1016.0
20260831031503 84 0 0.0 0.0 0.00 0.00 0.00 73 1016.0
20260831031003 84 140 0.0 1.0 0.00 0.00 0.00 73 1015.9
20260831030524 84 209 0.0 2.0 0.00 0.00 0.00 72 1015.8
20260831030003 84 232 1.0 2.0 0.00 0.00 0.00 72 1015.8
20260831025503 84 230 1.0 2.0 0.00 0.00 0.00 71 1015.7
20260831025003 84 194 0.0 5.0 0.00 0.00 0.00 72 1015.5
20260831024503 83 189 0.0 5.0 0.00 0.00 0.00 71 1015.4
20260831024003 83 0 0.0 0.0 0.00 0.00 0.00 71 1015.3
20260831023503 83 0 0.0 0.0 0.00 0.00 0.00 71 1015.2
20260831023003 84 0 0.0 0.0 0.00 0.00 0.00 71 1015.1
20260831022503 84 0 0.0 0.0 0.00 0.00 0.00 69 1015.0
20260831022024 84 0 0.0 0.0 0.00 0.00 0.00 68 1014.9
20260831021503 84 0 0.0 0.0 0.00 0.00 0.00 69 1014.8
20260831021003 84 0 0.0 0.0 0.00 0.00 0.00 68 1014.7
20260831020503 84 0 0.0 0.0 0.00 0.00 0.00 67 1014.6
20260831020003 85 0 0.0 0.0 0.00 0.00 0.00 66 1014.6
20260831015503 85 0 0.0 0.0 0.00 0.00 0.00 67 1014.5
20260831015003 85 0 0.0 0.0 0.00 0.00 0.00 65 1014.4
20260831014503 85 0 0.0 0.0 0.00 0.00 0.00 66 1014.4
20260831014003 86 0 0.0 0.0 0.00 0.00 0.00 64 1014.4
20260831013524 86 0 0.0 0.0 0.00 0.00 0.00 64 1014.3
20260831013003 86 0 0.0 0.0 0.00 0.00 0.00 63 1014.2
20260831012503 87 0 0.0 0.0 0.00 0.00 0.00 62 1014.3
20260831012003 87 0 0.0 0.0 0.00 0.00 0.00 63 1014.3
20260831011503 88 0 0.0 0.0 0.00 0.00 0.00 60 1014.2
20260831011003 88 0 0.0 0.0 0.00 0.00 0.00 59 1014.1
20260831010524 89 0 0.0 0.0 0.00 0.00 0.00 56 1014.1
20260831010003 90 0 0.0 0.0 0.00 0.00 0.00 58 1014.0
20260831005503 90 0 0.0 0.0 0.00 0.00 0.00 53 1014.0
20260831005003 90 0 0.0 0.0 0.00 0.00 0.00 52 1013.9
20260831004503 91 0 0.0 0.0 0.00 0.00 0.00 54 1014.0
20260831004003 92 170 0.0 1.0 0.00 0.00 0.00 53 1014.1
20260831003503 92 172 0.0 1.0 0.00 0.00 0.00 52 1014.1
20260831003003 93 171 1.0 4.0 0.00 0.00 0.00 52 1014.0
20260831002525 94 169 1.0 4.0 0.00 0.00 0.00 49 1014.1
20260831002004 94 157 1.0 3.0 0.00 0.00 0.00 49 1014.1
20260831001504 94 159 1.0 3.0 0.00 0.00 0.00 46 1014.2
20260831001004 95 162 1.0 3.0 0.00 0.00 0.00 46 1014.2
20260831000504 95 154 1.0 4.0 0.00 0.00 0.00 45 1014.2
20260831000004 95 156 1.0 4.0 0.00 0.00 0.00 44 1014.2
20260830235504 96 168 1.0 3.0 0.00 0.00 0.00 44 1014.2
20260830235025 96 157 1.0 4.0 0.00 0.00 0.00 44 1014.3
20260830234525 96 124 2.0 6.0 0.00 0.00 0.00 45 1014.2
20260830234025 97 131 2.0 6.0 0.00 0.00 0.00 44 1014.1
20260830233525 97 169 1.0 4.0 0.00 0.00 0.00 45 1014.1
20260830233004 98 172 2.0 5.0 0.00 0.00 0.00 43 1014.0
20260830232504 98 156 2.0 5.0 0.00 0.00 0.00 41 1014.1
20260830232004 99 135 1.0 5.0 0.00 0.00 0.00 40 1014.2
20260830231504 99 166 1.0 3.0 0.00 0.00 0.00 38 1014.1
20260830231004 99 207 1.0 3.0 0.00 0.00 0.00 37 1014.2
20260830230525 99 184 2.0 6.0 0.00 0.00 0.00 37 1014.2
20260830230004 99 171 2.0 6.0 0.00 0.00 0.00 38 1014.2
20260830225504 100 188 1.0 4.0 0.00 0.00 0.00 37 1014.2
20260830225004 100 187 1.0 5.0 0.00 0.00 0.00 38 1014.1
20260830224525 100 170 2.0 5.0 0.00 0.00 0.00 36 1014.1
20260830224004 99 166 2.0 5.0 0.00 0.00 0.00 36 1014.1
20260830223504 100 174 3.0 5.0 0.00 0.00 0.00 36 1014.1
20260830223004 100 175 2.0 5.0 0.00 0.00 0.00 37 1014.1